Regional Weather Roundup
Issued by NWS

Home | Current Version | Previous Version | Text Only | Print | Product List | Glossary Off
Versions: 1 2 3 4 5 6 7 8 9 10 11 12 13 14 15 16 17 18 19 20 21 22 23 24 25 26 27 28 29 30 31 32 33 34 35 36 37 38 39 40 41 42 43 44 45 46 47 48 49 50

000
ASUS43 KTOP 281908
RWRKS

WEATHER ROUNDUP FOR KANSAS
NATIONAL WEATHER SERVICE GOODLAND KS
100 PM CST SUN DEC 28 2014

NOTE:  "FAIR" INDICATES FEW OR NO CLOUDS BELOW 12,000 FEET WITH NO
SIGNIFICANT WEATHER AND/OR OBSTRUCTIONS TO VISIBILITY.

KSZ001>006-013>018-027>032-041>047-282000-
NORTHWEST KANSAS

CITY           SKY/WX    TMP DP  RH WIND       PRES   REMARKS
GOODLAND       CLOUDY    30  21  69 S9        29.94F
HAYS           SUNNY     37  21  52 S8        30.07F
HILL CITY      MOSUNNY   32  20  61 CALM      30.05F
RUSSELL        SUNNY     39  24  55 SW5       30.07F
$$

KSZ061>065-074>080-084>089-282000-
SOUTHWEST KANSAS

CITY           SKY/WX    TMP DP  RH WIND       PRES   REMARKS
DODGE CITY     MOSUNNY   39  16  39 S15       30.02F WCI  31
ELKHART          N/A     39  18  43 E2          N/A
GARDEN CITY    SUNNY     35  21  56 S10       29.98F WCI  27
GREAT BEND     MOSUNNY   39  21  48 S15       30.08F WCI  31
LIBERAL        SUNNY     36  21  55 S9        30.01F
PRATT          MOSUNNY   39  18  41 S12       30.09F WCI  32
$$

KSZ066>073-081>083-090>101-282000-
SOUTHEAST KANSAS

CITY           SKY/WX    TMP DP  RH WIND       PRES   REMARKS
CHANUTE        SUNNY     36  19  50 VRB3      30.19F
COFFEYVILLE    SUNNY     37  20  50 VRB3      30.20F
HUTCHINSON     SUNNY     42  20  41 S9        30.11F
MEDICINE LODGE   N/A     40  18  41 S10       30.10F WCI  33
NEWTON         SUNNY     39  21  48 SW7       30.14F
PARSONS        SUNNY     37  21  52 W5        30.20F
WICHITA INTL   MOSUNNY   40  21  46 S10       30.15F WCI  33
WICHITA JABRA  SUNNY     38  21  50 SW8       30.14F
WICHITA MCCONL SUNNY     38  22  50 SW6       30.15F
WINFIELD       SUNNY     39  23  52 S7        30.17F
$$

KSZ007>012-019>026-033>040-048>060-102>105-282000-
NORTHEAST KANSAS

CITY           SKY/WX    TMP DP  RH WIND       PRES   REMARKS
CONCORDIA      SUNNY     36  22  56 SW7       30.11F
EMPORIA        SUNNY     37  24  59 S10       30.16F WCI  30
LAWRENCE       SUNNY     37  21  52 S7        30.17F
MANHATTAN      SUNNY     38  21  50 SW7       30.14F
MARYSVILLE     SUNNY     37  23  56 SW10      30.12F WCI  30
OLATHE IND     SUNNY     34  20  56 VRB6      30.17F
OLATHE EXE     SUNNY     34  20  56 S5        30.16F
SALINA         SUNNY     40  25  55 S6        30.13F
TOPEKA BILLARD SUNNY     39  20  46 SE5       30.17F
TOPEKA FORBES  SUNNY     39  19  44 S8        30.16F
$$


USA.gov is the U.S. government's official web portal to all federal, state and local government web resources and services.